Weather Roundup
Issued by NWS Springfield, MO

Current Version | Previous Version | Text Only | Print | Product List | Glossary On
Versions: 1 2 3 4 5 6 7 8 9 10 11 12 13 14 15 16 17 18 19 20 21 22 23 24 25 26 27 28 29 30 31 32 33 34 35 36 37 38 39 40 41 42 43 44 45 46 47 48 49 50
000
NZUS99 KSGF 201207
HRRSGF

HOURLY WEATHER
NATIONAL WEATHER SERVICE SPRINGFIELD MO
700 AM CDT SUN AUG 20 2017

......SGF CWA......

CITY           SKY/WX    TMP DP  RH WIND       PRES   REMARKS
SPRINGFIELD    PTCLDY    75  74  96 S6        30.00R
6HR MIN TEMP:  75; 6HR MAX TEMP:  79;

JOPLIN         CLEAR     80  76  87 SW8       29.98R
6HR MIN TEMP:  80; 6HR MAX TEMP:  82;

WEST PLAINS    CLOUDY    75  71  87 SW3       30.04R
6HR MIN TEMP:  72; 6HR MAX TEMP:  75;

ROLLA          CLOUDY    72  71  97 S8        30.02R
6HR MIN TEMP:  68; 6HR MAX TEMP:  72;

OSAGE BEACH    CLOUDY    72  71  97 CALM      30.01R
BRANSON        PTCLDY    75  73  94 S6        30.03S

......SURROUNDING SGF CWA......

CITY           SKY/WX    TMP DP  RH WIND       PRES   REMARKS
CHANUTE        CLEAR     70  66  87 SE7       29.95R
PARSONS        CLEAR     71  69  93 CALM      29.96R
COFFEYVILLE    CLEAR     73  72  96 S7        29.94S
EMPORIA        PTCLDY    68  63  84 N10       29.97R
GROVE OK       CLEAR     75  73  94 S5        29.99S
ROGERS AR      CLEAR     73  72  96 CALM      30.04
HARRISON AR    PTCLDY    74  73  97 CALM      30.04R
NEAR YELLVILLE PTCLDY    75  68  78 SW6       29.98S

......KANSAS AND MISSOURI......

CITY           SKY/WX    TMP DP  RH WIND       PRES   REMARKS
KANSAS CTY INT TSTM      69  66  90 SE12      29.99F
DOWNTOWN KC    TSTM      71  69  93 E3        30.00F
COLUMBIA       CLOUDY    71  70  96 SE5       30.00R
SEDALIA        CLOUDY    77  75  93 S6        30.00R
ST JOSEPH      TSTM      68  68 100 SW8       30.01R
ST LOUIS       MOCLDY    75  70  84 CALM      30.00R
SPIRIT OF STL  MOCLDY    69  69 100 SW3       29.98S
KIRKSVILLE     TSTM      69  66  90 NW12G22   30.05R FOG
WICHITA        PTCLDY    72  69  90 S9        29.93S
TOPEKA         CLOUDY    69  68  96 E7        29.97S
OLATHE         CLOUDY    70  65  84 NE12G22   30.01S

......TENNESSEE......

CITY           SKY/WX    TMP DP  RH WIND       PRES   REMARKS
MEMPHIS        PTCLDY    78  75  90 S3        30.03R
NASHVILLE      PTCLDY    73  70  90 CALM      30.08R

......ARKANSAS.......

CITY           SKY/WX    TMP DP  RH WIND       PRES   REMARKS
FAYETTEVILLE   CLEAR     70  70 100 CALM      30.03R
FT SMITH       CLEAR     77  75  93 NE6       29.98S
LITTLE ROCK    PTCLDY    76  76 100 SW3       30.00R

......OKLAHOMA.......

CITY           SKY/WX    TMP DP  RH WIND       PRES   REMARKS
TULSA          PTCLDY    80  75  84 S7        29.94S
PONCA CITY     CLEAR     76  68  76 S6        29.95S
MCALESTER      MOCLDY    78  73  84 S3        30.00R
OKLAHOMA CITY  PTCLDY    70  69  97 S5        29.98R

......IOWA............

CITY           SKY/WX    TMP DP  RH WIND       PRES   REMARKS
DES MOINES     LGT RAIN  70  67  90 SE8       29.93F
QUAD CITIES    CLOUDY    64  60  87 E3        29.98R

......ILLINOIS........

CITY           SKY/WX    TMP DP  RH WIND       PRES   REMARKS
QUINCY         CLOUDY    69  66  90 S3        29.98S
CHICAGO        MOCLDY    65  58  78 S3        30.03R




USA.gov is the U.S. government's official web portal to all federal, state and local government web resources and services.